Casper, WY

6:38 AM MDT on September 23, 2014 (GMT -0600)
North of Casper, WY | Change Station
CLOSE
Current Station
Personal Weather Station
Location: Bar Nunn, WY
Elevation: 5276 ft
Nearby Weather Stations

Elev 5276 ft 42.91 °N, 106.35 °W | Updated 3 minutes ago

Clear
Clear
54.1 °F
Feels Like 54.1 °F
N
6.4
Wind Variable Wind from North
Gusts 6.4 mph

Today
High -- | Low -- °F
--% Chance of Precip.
Yesterday
High -- | Low -- °F
Precip. -- in
6:53 AM 7:00 PM
Waning Crescent, 1% visible
Pressure 29.94 in
Visibility 10.0 miles
Clouds Clear
Dew Point 41 °F
Humidity 61%
Rainfall 0.00 in
Snow Depth 0 in , 0 in , 0 in
UV 0 out of 12
Pollen 5.70 out of 12
Air Quality Not available.
Flu Activity Not available.
METAR KCPR 231153Z 22009KT 10SM CLR 13/04 A3009 RMK AO2 SLP139 T01280044 10161 20117 53007

More Conditions Fewer Conditions

Pressure 29.94 in
Visibility 10.0 miles
Clouds Clear
Dew Point 41 °F
Humidity 61%
Rainfall 0.00 in
Snow Depth 0 in , 0 in , 0 in
UV 0 out of 12
Pollen 5.70 out of 12
Air Quality Not available.
Flu Activity Not available.
METAR KCPR 231153Z 22009KT 10SM CLR 13/04 A3009 RMK AO2 SLP139 T01280044 10161 20117 53007

More Conditions Fewer Conditions

10-Day Weather Forecast

Almanac

Astronomy

Sep. 23, 2014 Rise Set
Actual Time 6:53 AM MDT 7:00 PM MDT
Civil Twilight 6:25 AM MDT 7:28 PM MDT
Nautical Twilight 5:52 AM MDT 8:01 PM MDT
Astronomical Twilight 5:18 AM MDT 8:35 PM MDT
Moon 6:20 AM MDT 6:40 PM MDT
Length of Visible Light 13h 03m
Length of Day
12h 06m
Tomorrow will be 2m 53s shorter.
Waning Crescent, 1% of the Moon is Illuminated
Today
Waning Crescent
Sep 24
New
Oct 1
First Quarter
Oct 8
Full
Oct 15
Last Quarter

Today's Extremes

State Highs State Lows

Community

WunderPhotos

Upload Photos

1,755,662 photos uploaded!

WunderBlogs® & News

Nearby

Snow Depth

Station Depth Elevation
Casper Mountain 0 in 7850 ft
North French Creek 0 in 10130 ft
Townsend Creek 0 in 8700 ft
Cloud Peak Reservoir 0 in 9860 ft
Bone Springs Divide 0 in 9350 ft

Earthquake Activity

City Distance Mag. Time & Date
No recent earthquake activity has been reported nearby.
Minimum magnitude displayed is 2.5.

Coastal Water Temperatures

Place Temperature
No Stations Reporting

Nearby Weather Stations